• MPC Preparation (Info)

  • MPEC 2015-K121: 2015 KM122

    The following Minor Planet Electronic Circular may be linked-to from your own Web pages, but must not otherwise be redistributed electronically.

    A form allowing access to any MPEC is at the bottom of this page.


    Read MPEC 2015-K120 Read MPEC 2015-K122


    M.P.E.C. 2015-K121                               Issued 2015 May 27, 14:25 UT
    
         The Minor Planet Electronic Circulars contain information on unusual
             minor planets and routine data on comets.  They are published
       on behalf of Commission 20 of the International Astronomical Union by the
              Minor Planet Center, Smithsonian Astrophysical Observatory,
                              Cambridge, MA 02138, U.S.A.
    
                 Prepared using the Tamkin Foundation Computer Network
    
                                  MPC@CFA.HARVARD.EDU
                URL https://www.minorplanetcenter.net/    ISSN 1523-6714
    
                                      2015 KM122
    
    Observations:
         K15KC2M* C2015 05 25.17697 13 29 12.58 -08 16 58.8          20.6 VqEK121G96
         K15KC2M  C2015 05 25.18207 13 29 13.25 -08 17 21.6          20.8 VqEK121G96
         K15KC2M  C2015 05 25.18718 13 29 13.88 -08 17 44.7          20.9 VqEK121G96
         K15KC2M  C2015 05 25.25058 13 29 21.80 -08 22 27.6          22.2 VqEK121G96
         K15KC2M  C2015 05 25.25119 13 29 21.94 -08 22 30.3          21.4 VqEK121G96
         K15KC2M  C2015 05 25.25181 13 29 22.03 -08 22 32.7          21.3 VqEK121G96
         K15KC2M  C2015 05 25.25242 13 29 22.15 -08 22 36.4          20.6 VqEK121G96
         K15KC2M  C2015 05 25.35189 13 29 35.13 -08 29 58.8          20.9 VqEK121G96
         K15KC2M  C2015 05 25.35358 13 29 35.45 -08 30 06.2          21.3 VqEK121G96
         K15KC2M  C2015 05 25.35442 13 29 35.57 -08 30 10.2          20.0 VqEK121G96
         K15KC2M  C2015 05 25.35527 13 29 35.66 -08 30 13.2          20.3 VqEK121G96
         K15KC2M  C2015 05 26.20026 13 31 48.49 -09 34 06.6          21.0 VqEK121G96
         K15KC2M  C2015 05 26.20087 13 31 48.57 -09 34 09.4          20.5 VqEK121G96
         K15KC2M  C2015 05 26.20149 13 31 48.67 -09 34 12.4          20.8 VqEK121G96
         K15KC2M  C2015 05 26.20210 13 31 48.81 -09 34 16.0          21.2 VqEK121G96
         K15KC2M  C2015 05 26.20271 13 31 48.84 -09 34 18.0          21.2 VqEK121G96
         K15KC2M  C2015 05 27.15047 13 34 23.25 -10 47 25.1          20.5 VqEK121G96
         K15KC2M  C2015 05 27.15109 13 34 23.30 -10 47 28.4          21.2 VqEK121G96
         K15KC2M  C2015 05 27.15170 13 34 23.35 -10 47 30.8          20.8 VqEK121G96
         K15KC2M  C2015 05 27.15231 13 34 23.47 -10 47 33.9          20.7 VqEK121G96
         K15KC2M  C2015 05 27.15293 13 34 23.52 -10 47 36.2          21.5 VqEK121G96
         K15KC2M  C2015 05 27.19446 13 34 29.50 -10 50 50.9          20.7 RoEK121926
         K15KC2M  C2015 05 27.19947 13 34 30.26 -10 51 14.5          21.0 RoEK121926
         K15KC2M  C2015 05 27.20449 13 34 30.90 -10 51 38.4          21.5 RoEK121926
    
    Observer details:
    926 Tenagra II Observatory.  Observers M. Schwartz, P. R. Holvorcem.  Measurer
        M. Schwartz.  0.81-m f/7 Ritchey-Chretien + CCD.
    G96 Mt. Lemmon Survey.  Observer R. E. Hill.  Measurers E. J. Christensen,
        D. C. Fuls, A. R. Gibbs, A. D. Grauer, R. E. Hill, J. A. Johnson,
        R. A. Kowalski, S. M. Larson, R. G. Matheny, F. C. Shelly.  1.5-m
        reflector + CCD.
    
    Orbital elements:
    2015 KM122                                               Earth MOID = 0.1055 AU
    Epoch 2015 June 27.0 TT = JDT 2457200.5                 MPC
    M   7.71928              (2000.0)            P               Q
    n   0.30006549     Peri.  186.13022     -0.40401851     +0.90954801
    a   2.2096594      Node    60.07688     -0.83442029     -0.32279947
    e   0.4940079      Incl.    6.45419     -0.37484906     -0.26176883
    P   3.28           H   23.7           G   0.15           U   6
    Residuals in seconds of arc
    150525 G96  0.2-  0.3+    150525 G96  0.4+  0.4-    150527 G96  0.6+  0.2+
    150525 G96  0.3+  0.3+    150525 G96  0.5+  0.7-    150527 G96  0.0   0.2-
    150525 G96  0.1+  0.1+    150525 G96  0.1+  0.1+    150527 G96  0.5-  0.3+
    150525 G96  1.0-  0.1+    150526 G96  0.2-  0.4+    150527 G96  0.1-  0.0
    150525 G96  0.1-  0.1+    150526 G96  0.3-  0.4+    150527 G96  0.6-  0.6+
    150525 G96  0.1+  0.5+    150526 G96  0.0   0.2+    150527 926  0.1+  0.2-
    150525 G96  0.7+  0.5-    150526 G96  0.9+  0.6-    150527 926  0.8+  0.3-
    150525 G96  0.9-  0.5-    150526 G96  0.1+  0.2+    150527 926  0.3-  0.7-
    
    Ephemeris:
    2015 KM122               a,e,i = 2.21, 0.49, 6                   q = 1.1181
    Date    TT    R. A. (2000) Decl.     Delta      r     Elong.  Phase     V
    2015 04 27    13 01 15.9 +12 48 04   0.2075  1.1871   147.8    26.8    21.9
    ...
    2015 05 12    13 07 27.9 +04 57 12   0.1625  1.1416   141.4    33.5    21.4
    ...
    2015 05 20    13 18 13.0 -02 18 44   0.1448  1.1268   140.1    35.1    21.2
    ...
    2015 05 26    13 31 17.1 -09 18 05   0.1353  1.1203   140.3    35.3    21.1
    2015 05 27    13 33 57.2 -10 34 55   0.1341  1.1197   140.4    35.2    21.0
    2015 05 28    13 36 46.2 -11 53 26   0.1330  1.1191   140.6    35.1    21.0
    ...
    2015 06 03    13 56 59.8 -20 10 25   0.1289  1.1182   141.7    34.2    20.9
    ...
    2015 06 11    14 33 20.0 -31 15 23   0.1315  1.1236   143.4    32.6    20.9
    ...
    2015 06 26    16 04 46.3 -45 34 19   0.1615  1.1529   145.3    30.1    21.4
    
    A. U. Tomatic                (C) Copyright 2015 MPC           M.P.E.C. 2015-K121
    

    Read MPEC 2015-K120 Read MPEC 2015-K122


    MPEC number:

    Enter an MPEC number in one of the following forms:

    • 1997-B01 (the full form)
    • J97B01 (the packed version of the full form)
    • B01 (the abbreviated form)